TimeHST,TemperatureF,Dew PointF,Humidity,Sea Level PressureIn,VisibilityMPH,Wind Direction,Wind SpeedMPH,Gust SpeedMPH,PrecipitationIn,Events,Conditions,WindDirDegrees,DateUTC
12:54 AM,73.0,71.1,93,30.01,10.0,NNE,9.2,-,N/A,,Clear,30,2013-09-18 10:54:00
1:54 AM,73.0,71.1,93,30.00,10.0,NE,11.5,-,0.00,,Clear,40,2013-09-18 11:54:00
2:54 AM,73.9,71.1,91,29.99,10.0,NE,9.2,20.7,N/A,,Partly Cloudy,50,2013-09-18 12:54:00
3:40 AM,73.4,71.6,94,29.97,10.0,NE,11.5,-,0.01,,Partly Cloudy,40,2013-09-18 13:40:00
3:54 AM,73.0,71.1,93,29.97,10.0,NE,11.5,18.4,0.01,,Clear,40,2013-09-18 13:54:00
4:54 AM,73.9,71.1,91,29.97,10.0,NE,8.1,21.9,N/A,,Mostly Cloudy,40,2013-09-18 14:54:00
5:54 AM,73.9,70.0,87,29.99,10.0,NE,9.2,18.4,N/A,,Partly Cloudy,40,2013-09-18 15:54:00
6:54 AM,73.9,71.1,91,29.99,10.0,NNE,11.5,20.7,N/A,,Scattered Clouds,30,2013-09-18 16:54:00
7:54 AM,77.0,71.1,82,30.01,10.0,NE,12.7,21.9,N/A,,Clear,40,2013-09-18 17:54:00
8:54 AM,80.1,69.1,69,30.02,10.0,NE,12.7,19.6,N/A,,Partly Cloudy,40,2013-09-18 18:54:00
9:54 AM,81.0,71.1,72,30.03,10.0,NE,12.7,21.9,N/A,,Clear,40,2013-09-18 19:54:00
10:54 AM,82.0,70.0,67,30.02,10.0,NE,16.1,24.2,N/A,,Clear,40,2013-09-18 20:54:00
11:54 AM,82.9,69.1,63,30.01,10.0,NE,13.8,21.9,N/A,,Clear,40,2013-09-18 21:54:00
12:54 PM,84.0,68.0,58,29.98,10.0,NE,19.6,28.8,N/A,,Scattered Clouds,50,2013-09-18 22:54:00
1:54 PM,84.9,70.0,61,29.97,10.0,NNE,12.7,23.0,N/A,,Scattered Clouds,20,2013-09-18 23:54:00
2:54 PM,82.9,69.1,63,29.96,10.0,NE,13.8,24.2,N/A,,Scattered Clouds,50,2013-09-19 00:54:00
3:54 PM,82.0,70.0,67,29.96,10.0,NE,18.4,26.5,N/A,,Partly Cloudy,40,2013-09-19 01:54:00
4:54 PM,80.1,70.0,71,29.96,10.0,NE,16.1,28.8,N/A,,Clear,40,2013-09-19 02:54:00
5:54 PM,78.1,71.1,79,29.96,10.0,NNE,18.4,27.6,N/A,,Clear,30,2013-09-19 03:54:00
6:54 PM,75.9,71.1,85,29.99,10.0,NE,13.8,24.2,N/A,,Clear,40,2013-09-19 04:54:00
7:54 PM,75.0,71.1,87,30.01,10.0,NE,11.5,18.4,N/A,,Clear,50,2013-09-19 05:54:00
8:54 PM,75.0,70.0,84,30.02,10.0,NE,10.4,18.4,N/A,,Clear,40,2013-09-19 06:54:00
9:54 PM,75.0,69.1,82,30.03,10.0,NNE,8.1,-,N/A,,Clear,30,2013-09-19 07:54:00
10:54 PM,75.0,71.1,87,30.02,10.0,NE,9.2,-,N/A,,Clear,40,2013-09-19 08:54:00
11:54 PM,75.0,70.0,84,30.01,10.0,NE,11.5,-,N/A,,Clear,40,2013-09-19 09:54:00